Weather Roundup
Issued by NWS Springfield, MO

Home | Current Version | Previous Version | Text Only | Print | Product List | Glossary On
Versions: 1 2 3 4 5 6 7 8 9 10 11 12 13 14 15 16 17 18 19 20 21 22 23 24 25 26 27 28 29 30 31 32 33 34 35 36 37 38 39 40 41 42 43 44 45 46 47 48 49 50
000
NZUS99 KSGF 231457
HRRSGF

HOURLY WEATHER
NATIONAL WEATHER SERVICE SPRINGFIELD MO
900 AM CST FRI FEB 23 2018

......SGF CWA......

CITY           SKY/WX    TMP DP  RH WIND       PRES   REMARKS
SPRINGFIELD    CLOUDY    41  40  96 CALM      30.27F
JOPLIN         CLOUDY    38  38 100 CALM      30.30R FOG
WEST PLAINS    CLOUDY    45  43  93 VRB3      30.29R
ROLLA          CLOUDY    42  41  96 W7        30.28S

......SURROUNDING SGF CWA......

CITY           SKY/WX    TMP DP  RH WIND       PRES   REMARKS
CHANUTE        CLOUDY    36  34  92 W3        30.32R
PARSONS        CLOUDY    37  36  96 N3        30.31R
COFFEYVILLE    CLOUDY    38  36  92 N3        30.31R
EMPORIA        CLOUDY    32  28  85 N5        30.31R WCI  27
HARRISON AR    FOG       44  44 100 N6        30.26F VSB 3/4

......KANSAS AND MISSOURI......

CITY           SKY/WX    TMP DP  RH WIND       PRES   REMARKS
KANSAS CTY INT CLOUDY    32  29  88 NW5       30.29R WCI  27
SEDALIA        CLOUDY    37  36  96 NW6       30.30R WCI  32
ST JOSEPH      CLOUDY    32  30  92 NW8       30.30R WCI  25
ST LOUIS       CLOUDY    46  44  93 W13       30.28R
WICHITA        CLOUDY    33  31  92 NE7       30.27S WCI  27
TOPEKA         CLOUDY    34  31  88 NW3       30.32R
OLATHE         CLOUDY    33  32  96 N3        30.29R

......TENNESSEE......

CITY           SKY/WX    TMP DP  RH WIND       PRES   REMARKS
MEMPHIS        NOT AVBL
NASHVILLE      PTSUNNY   69  61  75 SW14G21   30.34R

......ARKANSAS.......

CITY           SKY/WX    TMP DP  RH WIND       PRES   REMARKS
FAYETTEVILLE   CLOUDY    45  45 100 CALM      30.26S FOG
FT SMITH       CLOUDY    47  46  97 CALM      30.27S
LITTLE ROCK    LGT RAIN  51  51 100 NW6       30.29R

......OKLAHOMA.......

CITY           SKY/WX    TMP DP  RH WIND       PRES   REMARKS
TULSA          CLOUDY    39  38  96 NE5       30.29R FOG
PONCA CITY     CLOUDY    36  32  85 E6        30.29R WCI  31
MCALESTER      CLOUDY    41  41 100 NE7       30.24F FOG
OKLAHOMA CITY  CLOUDY    32  32 100 NE10      30.24S FOG     WCI  24

......IOWA............

CITY           SKY/WX    TMP DP  RH WIND       PRES   REMARKS
DES MOINES     NOT AVBL
QUAD CITIES    CLOUDY    36  34  93 W13       30.18R WCI  27

......ILLINOIS........

CITY           SKY/WX    TMP DP  RH WIND       PRES   REMARKS
QUINCY         NOT AVBL
CHICAGO        DRIZZLE   43  41  93 SW12      30.09R FOG



USA.gov is the U.S. government's official web portal to all federal, state and local government web resources and services.